| time (UTC) | temp C | wind direction | speed KPH | gust KPH | rain 1hr cm | rain 24hr cm | rain mn cm | humidity % | barometer mb |
| 20260508091050 | 11 | 26 | 1.6 | 6.4 | 0.00 | 1.50 | 0.03 | 93 | 1016.3 |
| 20260508090550 | 11 | 29 | 0.0 | 6.4 | 0.00 | 1.50 | 0.03 | 93 | 1016.1 |
| 20260508090058 | 11 | 41 | 1.6 | 6.4 | 0.00 | 1.50 | 0.03 | 94 | 1015.9 |
| 20260508085550 | 11 | 28 | 1.6 | 6.4 | 0.00 | 1.50 | 0.03 | 94 | 1016.0 |
| 20260508085051 | 11 | 47 | 1.6 | 3.2 | 0.00 | 1.50 | 0.03 | 94 | 1015.9 |
| 20260508084559 | 11 | 0 | 0.0 | 4.8 | 0.00 | 1.50 | 0.03 | 94 | 1016.1 |
| 20260508084052 | 11 | 61 | 0.0 | 4.8 | 0.00 | 1.50 | 0.03 | 94 | 1016.3 |
| 20260508083549 | 11 | 114 | 1.6 | 6.4 | 0.00 | 1.50 | 0.03 | 94 | 1016.0 |
| 20260508083132 | 11 | 61 | 1.6 | 6.4 | 0.00 | 1.50 | 0.03 | 94 | 1016.0 |
| 20260508082549 | 11 | 20 | 1.6 | 8.0 | 0.00 | 1.50 | 0.03 | 94 | 1016.0 |
| 20260508082050 | 11 | 26 | 3.2 | 8.0 | 0.00 | 1.50 | 0.03 | 95 | 1015.4 |
| 20260508081555 | 11 | 44 | 4.8 | 8.0 | 0.00 | 1.50 | 0.03 | 95 | 1015.4 |
| 20260508081050 | 11 | 159 | 1.6 | 4.8 | 0.00 | 1.50 | 0.03 | 95 | 1015.3 |
| 20260508080550 | 11 | 129 | 1.6 | 4.8 | 0.00 | 1.50 | 0.03 | 95 | 1015.4 |
| 20260508075925 | 10 | 110 | 0.0 | 4.8 | 0.00 | 1.50 | 0.03 | 96 | 1015.7 |
| 20260508070548 | 8 | 0 | 0.0 | 3.2 | 0.00 | 1.50 | 0.03 | 96 | 1015.5 |
| 20260508070058 | 8 | 0 | 0.0 | 3.2 | 0.00 | 1.50 | 0.03 | 96 | 1015.5 |
| 20260508065548 | 8 | 102 | 1.6 | 3.2 | 0.00 | 1.50 | 0.03 | 95 | 1015.5 |
| 20260508065255 | 8 | 98 | 0.0 | 3.2 | 0.00 | 1.50 | 0.03 | 96 | 1015.4 |
| 20260508063550 | 8 | 0 | 0.0 | 1.6 | 0.00 | 1.47 | 0.00 | 96 | 1015.1 |
| 20260508063051 | 8 | 147 | 0.0 | 1.6 | 0.00 | 1.47 | 0.00 | 97 | 1014.9 |
| 20260508062549 | 8 | 147 | 0.0 | 1.6 | 0.00 | 1.47 | 0.00 | 97 | 1014.9 |
| 20260508062049 | 8 | 0 | 0.0 | 1.6 | 0.00 | 1.47 | 0.00 | 96 | 1015.2 |
| 20260508061553 | 7 | 0 | 0.0 | 1.6 | 0.00 | 1.47 | 0.00 | 96 | 1015.0 |
| 20260508061049 | 7 | 148 | 0.0 | 1.6 | 0.00 | 1.47 | 0.00 | 96 | 1015.1 |
| 20260508060553 | 7 | 0 | 0.0 | 1.6 | 0.00 | 1.47 | 0.00 | 96 | 1014.9 |
| 20260508060050 | 7 | 147 | 0.0 | 0.0 | 0.00 | 1.47 | 0.00 | 96 | 1014.7 |
| 20260508055549 | 6 | 0 | 0.0 | 0.0 | 0.00 | 1.47 | 0.00 | 96 | 1015.2 |
| 20260508055050 | 6 | 146 | 0.0 | 0.0 | 0.00 | 1.47 | 0.00 | 95 | 1014.9 |
| 20260508054554 | 6 | 0 | 0.0 | 0.0 | 0.00 | 1.47 | 0.00 | 95 | 1015.1 |
| 20260508054052 | 6 | 0 | 0.0 | 0.0 | 0.00 | 1.47 | 0.00 | 95 | 1014.9 |
| 20260508053549 | 6 | 0 | 0.0 | 0.0 | 0.00 | 1.47 | 0.00 | 95 | 1014.7 |
| 20260508053056 | 6 | 0 | 0.0 | 1.6 | 0.00 | 1.47 | 0.00 | 95 | 1014.7 |
| 20260508052550 | 6 | 146 | 0.0 | 1.6 | 0.00 | 1.47 | 0.00 | 95 | 1014.6 |
| 20260508052050 | 6 | 147 | 0.0 | 3.2 | 0.00 | 1.47 | 0.00 | 95 | 1014.5 |
| 20260508051551 | 6 | 0 | 0.0 | 4.8 | 0.00 | 1.47 | 0.00 | 95 | 1014.6 |
| 20260508051049 | 6 | 155 | 1.6 | 4.8 | 0.00 | 1.47 | 0.00 | 95 | 1014.5 |
| 20260508050549 | 6 | 112 | 0.0 | 3.2 | 0.00 | 1.47 | 0.00 | 95 | 1014.6 |
| 20260508050058 | 6 | 143 | 0.0 | 3.2 | 0.00 | 1.47 | 0.00 | 95 | 1014.3 |
| 20260508045554 | 6 | 0 | 0.0 | 3.2 | 0.00 | 1.47 | 0.00 | 95 | 1014.3 |
| 20260508045051 | 6 | 148 | 0.0 | 4.8 | 0.00 | 1.47 | 0.00 | 95 | 1014.4 |
| 20260508044552 | 6 | 129 | 1.6 | 4.8 | 0.00 | 1.47 | 0.00 | 95 | 1014.3 |
| 20260508044049 | 6 | 150 | 0.0 | 4.8 | 0.00 | 1.47 | 0.00 | 95 | 1014.4 |
| 20260508043549 | 6 | 162 | 1.6 | 4.8 | 0.00 | 1.47 | 0.00 | 95 | 1014.4 |
| 20260508043052 | 6 | 164 | 3.2 | 4.8 | 0.00 | 1.47 | 0.00 | 95 | 1014.3 |
| 20260508042550 | 6 | 136 | 0.0 | 1.6 | 0.00 | 1.47 | 0.00 | 95 | 1014.0 |
| 20260508042051 | 6 | 0 | 0.0 | 1.6 | 0.00 | 1.47 | 0.00 | 95 | 1014.0 |
| 20260508041555 | 6 | 0 | 0.0 | 3.2 | 0.00 | 1.47 | 0.00 | 95 | 1013.9 |
| 20260508041050 | 6 | 0 | 0.0 | 3.2 | 0.00 | 1.47 | 0.00 | 95 | 1013.7 |
| 20260508040549 | 6 | 133 | 0.0 | 3.2 | 0.00 | 1.47 | 0.00 | 95 | 1013.7 |
| 20260508040110 | 6 | 0 | 0.0 | 0.0 | 0.00 | 1.47 | 0.00 | 95 | 1013.8 |
| 20260508035551 | 6 | 0 | 0.0 | 0.0 | 0.00 | 1.47 | 0.00 | 95 | 1013.6 |
| 20260508035049 | 6 | 0 | 0.0 | 0.0 | 0.00 | 1.47 | 0.00 | 95 | 1014.0 |
| 20260508034555 | 6 | 145 | 0.0 | 0.0 | 0.00 | 1.47 | 0.00 | 95 | 1014.0 |
| 20260508034049 | 6 | 0 | 0.0 | 0.0 | 0.00 | 1.47 | 0.00 | 95 | 1014.1 |
| 20260508033547 | 6 | 0 | 0.0 | 1.6 | 0.00 | 1.47 | 0.00 | 95 | 1014.0 |
| 20260508033518 | 6 | 145 | 0.0 | 1.6 | 0.00 | 1.47 | 0.00 | 95 | 1014.2 |
| 20260508032047 | 6 | 0 | 0.0 | 0.0 | 0.00 | 1.47 | 0.00 | 95 | 1014.2 |
| 20260508031604 | 6 | 0 | 0.0 | 1.6 | 0.00 | 1.47 | 0.00 | 95 | 1014.2 |
| 20260508031049 | 6 | 0 | 0.0 | 3.2 | 0.00 | 1.47 | 0.00 | 95 | 1014.0 |
| 20260508030549 | 6 | 0 | 0.0 | 3.2 | 0.00 | 1.47 | 0.00 | 95 | 1014.2 |
| 20260508030122 | 6 | 152 | 0.0 | 4.8 | 0.00 | 1.47 | 0.00 | 95 | 1014.4 |
| 20260508025549 | 6 | 137 | 1.6 | 4.8 | 0.00 | 1.47 | 0.00 | 95 | 1014.5 |
| 20260508025049 | 6 | 135 | 0.0 | 0.0 | 0.00 | 1.47 | 0.00 | 95 | 1014.5 |
| 20260508024604 | 6 | 0 | 0.0 | 0.0 | 0.00 | 1.47 | 0.00 | 95 | 1014.3 |
| 20260508024049 | 6 | 0 | 0.0 | 1.6 | 0.00 | 1.47 | 0.00 | 95 | 1014.5 |
| 20260508023549 | 6 | 0 | 0.0 | 1.6 | 0.00 | 1.47 | 0.00 | 95 | 1014.5 |
| 20260508023108 | 6 | 132 | 0.0 | 1.6 | 0.00 | 1.47 | 0.00 | 95 | 1014.6 |
| 20260508022049 | 6 | 0 | 0.0 | 0.0 | 0.00 | 1.47 | 0.00 | 95 | 1014.5 |
| 20260508021600 | 6 | 0 | 0.0 | 0.0 | 0.00 | 1.47 | 0.00 | 94 | 1014.6 |
| 20260508021049 | 6 | 0 | 0.0 | 0.0 | 0.00 | 1.47 | 0.00 | 94 | 1014.7 |
| 20260508020548 | 6 | 0 | 0.0 | 1.6 | 0.00 | 1.47 | 0.00 | 94 | 1014.7 |
| 20260508020053 | 6 | 0 | 0.0 | 1.6 | 0.00 | 1.47 | 0.00 | 95 | 1014.8 |
| 20260508015549 | 6 | 153 | 0.0 | 1.6 | 0.00 | 1.47 | 0.00 | 95 | 1014.9 |
| 20260508015049 | 6 | 152 | 0.0 | 1.6 | 0.00 | 1.47 | 0.00 | 95 | 1015.1 |
| 20260508014553 | 6 | 153 | 0.0 | 3.2 | 0.00 | 1.47 | 0.00 | 94 | 1015.0 |
| 20260508014450 | 6 | 0 | 0.0 | 3.2 | 0.00 | 1.47 | 0.00 | 94 | 1014.9 |
| 20260508012051 | 6 | 0 | 0.0 | 0.0 | 0.00 | 1.47 | 0.00 | 94 | 1015.2 |
| 20260508011608 | 6 | 0 | 0.0 | 0.0 | 0.00 | 1.47 | 0.00 | 94 | 1015.1 |
| 20260508011050 | 6 | 0 | 0.0 | 0.0 | 0.00 | 1.47 | 0.00 | 94 | 1015.2 |
| 20260508010549 | 6 | 0 | 0.0 | 0.0 | 0.00 | 1.47 | 0.00 | 93 | 1015.2 |
| 20260508010105 | 7 | 0 | 0.0 | 0.0 | 0.00 | 1.47 | 0.00 | 94 | 1015.2 |
| 20260508005549 | 7 | 0 | 0.0 | 0.0 | 0.00 | 1.47 | 0.00 | 95 | 1015.1 |
| 20260508005050 | 7 | 0 | 0.0 | 0.0 | 0.00 | 1.47 | 0.00 | 94 | 1015.4 |
| 20260508004559 | 6 | 0 | 0.0 | 0.0 | 0.00 | 1.47 | 0.00 | 94 | 1015.4 |
| 20260508004050 | 6 | 0 | 0.0 | 0.0 | 0.00 | 1.47 | 0.00 | 94 | 1015.6 |
| 20260508003549 | 6 | 0 | 0.0 | 0.0 | 0.00 | 1.47 | 0.00 | 94 | 1015.6 |
| 20260508003110 | 6 | 0 | 0.0 | 0.0 | 0.00 | 1.47 | 0.00 | 93 | 1015.7 |
| 20260508002548 | 7 | 0 | 0.0 | 0.0 | 0.00 | 1.47 | 0.00 | 93 | 1015.7 |
| 20260508002049 | 7 | 0 | 0.0 | 0.0 | 0.00 | 1.47 | 0.00 | 94 | 1015.7 |
| 20260508001555 | 7 | 0 | 0.0 | 0.0 | 0.00 | 1.47 | 0.00 | 94 | 1015.7 |
| 20260508001049 | 7 | 0 | 0.0 | 0.0 | 0.00 | 1.47 | 0.00 | 94 | 1015.8 |
| 20260508000549 | 7 | 0 | 0.0 | 0.0 | 0.00 | 1.47 | 0.00 | 94 | 1015.8 |
| 20260508000053 | 7 | 0 | 0.0 | 0.0 | 0.00 | 1.47 | 0.00 | 93 | 1016.0 |
| 20260507235549 | 7 | 0 | 0.0 | 0.0 | 0.00 | 1.47 | 0.00 | 93 | 1016.1 |
| 20260507235049 | 7 | 0 | 0.0 | 0.0 | 0.00 | 1.47 | 0.00 | 93 | 1016.0 |
| 20260507234555 | 7 | 0 | 0.0 | 0.0 | 0.00 | 1.47 | 0.00 | 93 | 1016.0 |
| 20260507234049 | 7 | 0 | 0.0 | 0.0 | 0.00 | 1.47 | 0.00 | 93 | 1016.2 |
| 20260507233550 | 7 | 0 | 0.0 | 0.0 | 0.00 | 1.47 | 0.00 | 93 | 1016.2 |
| 20260507233059 | 7 | 0 | 0.0 | 0.0 | 0.00 | 1.47 | 0.00 | 93 | 1016.1 |
| 20260507232550 | 7 | 0 | 0.0 | 1.6 | 0.00 | 1.47 | 0.00 | 93 | 1016.0 |
| 20260507232049 | 7 | 0 | 0.0 | 1.6 | 0.00 | 1.47 | 0.00 | 93 | 1016.0 |
| 20260507231608 | 7 | 0 | 0.0 | 1.6 | 0.00 | 1.47 | 0.00 | 93 | 1016.0 |
| 20260507231049 | 7 | 0 | 0.0 | 1.6 | 0.00 | 1.47 | 0.00 | 93 | 1016.0 |
| 20260507230548 | 8 | 0 | 0.0 | 1.6 | 0.00 | 1.47 | 0.00 | 93 | 1016.0 |
| 20260507230059 | 7 | 150 | 0.0 | 0.0 | 0.00 | 1.47 | 0.00 | 93 | 1016.1 |
| 20260507225549 | 7 | 0 | 0.0 | 0.0 | 0.00 | 1.47 | 0.00 | 93 | 1015.9 |
| 20260507225049 | 7 | 0 | 0.0 | 0.0 | 0.00 | 1.45 | 0.00 | 93 | 1016.0 |
| 20260507224605 | 8 | 0 | 0.0 | 0.0 | 0.00 | 1.45 | 0.00 | 92 | 1016.1 |
| 20260507224047 | 8 | 0 | 0.0 | 0.0 | 0.00 | 1.45 | 0.00 | 93 | 1016.0 |
| 20260507223549 | 8 | 0 | 0.0 | 0.0 | 0.00 | 1.45 | 0.00 | 92 | 1016.0 |
| 20260507223053 | 8 | 0 | 0.0 | 0.0 | 0.00 | 1.45 | 0.00 | 92 | 1016.0 |
| 20260507222551 | 8 | 0 | 0.0 | 1.6 | 0.00 | 1.45 | 0.00 | 92 | 1016.1 |
| 20260507222048 | 8 | 0 | 0.0 | 1.6 | 0.00 | 1.45 | 0.00 | 93 | 1016.2 |
| 20260507221553 | 8 | 0 | 0.0 | 1.6 | 0.00 | 1.45 | 0.00 | 93 | 1016.2 |
| 20260507221049 | 8 | 0 | 0.0 | 0.0 | 0.00 | 1.45 | 0.00 | 92 | 1016.0 |
| 20260507220548 | 8 | 0 | 0.0 | 0.0 | 0.00 | 1.45 | 0.00 | 92 | 1016.2 |
| 20260507220056 | 8 | 0 | 0.0 | 0.0 | 0.00 | 1.45 | 0.00 | 92 | 1016.2 |
| 20260507215550 | 8 | 138 | 0.0 | 1.6 | 0.00 | 1.45 | 1.45 | 92 | 1016.2 |
| 20260507215048 | 9 | 0 | 0.0 | 3.2 | 0.00 | 1.45 | 1.45 | 92 | 1016.2 |
| 20260507214607 | 9 | 0 | 1.6 | 3.2 | 0.00 | 1.45 | 1.45 | 92 | 1016.2 |
| 20260507214048 | 9 | 132 | 0.0 | 0.0 | 0.00 | 1.45 | 1.45 | 92 | 1016.2 |
| 20260507213553 | 9 | 0 | 0.0 | 0.0 | 0.00 | 1.45 | 1.45 | 91 | 1016.0 |
| 20260507213109 | 9 | 0 | 0.0 | 1.6 | 0.00 | 1.45 | 1.45 | 91 | 1016.0 |
| 20260507212549 | 10 | 0 | 0.0 | 1.6 | 0.00 | 1.45 | 1.45 | 91 | 1015.9 |
| 20260507212049 | 10 | 0 | 0.0 | 3.2 | 0.00 | 1.45 | 1.45 | 91 | 1016.1 |
| 20260507211555 | 10 | 266 | 0.0 | 4.8 | 0.00 | 1.45 | 1.45 | 92 | 1015.9 |
| 20260507211052 | 10 | 266 | 1.6 | 4.8 | 0.00 | 1.45 | 1.45 | 92 | 1015.9 |
| 20260507210549 | 10 | 193 | 1.6 | 4.8 | 0.00 | 1.45 | 1.45 | 93 | 1015.8 |
| 20260507210056 | 10 | 318 | 1.6 | 3.2 | 0.00 | 1.45 | 1.45 | 93 | 1015.9 |
| 20260507205554 | 9 | 319 | 0.0 | 1.6 | 0.00 | 1.45 | 1.45 | 92 | 1015.9 |
| 20260507205049 | 9 | 0 | 0.0 | 4.8 | 0.00 | 1.45 | 1.45 | 92 | 1016.0 |
| 20260507204612 | 9 | 0 | 0.0 | 4.8 | 0.00 | 1.45 | 1.45 | 92 | 1015.8 |
| 20260507204048 | 9 | 318 | 1.6 | 9.7 | 0.00 | 1.45 | 1.45 | 92 | 1015.5 |
| 20260507203552 | 9 | 318 | 4.8 | 9.7 | 0.00 | 1.45 | 1.45 | 92 | 1015.3 |
| 20260507203103 | 10 | 304 | 4.8 | 9.7 | 0.00 | 1.45 | 1.45 | 91 | 1015.2 |
| 20260507202548 | 10 | 45 | 0.0 | 4.8 | 0.00 | 1.45 | 1.45 | 91 | 1015.3 |
| 20260507202048 | 10 | 43 | 0.0 | 4.8 | 0.00 | 1.45 | 1.45 | 90 | 1015.1 |
| 20260507201557 | 10 | 41 | 3.2 | 4.8 | 0.00 | 1.45 | 1.45 | 90 | 1015.1 |
| 20260507201051 | 10 | 38 | 1.6 | 4.8 | 0.00 | 1.45 | 1.45 | 90 | 1015.1 |
| 20260507200548 | 10 | 0 | 0.0 | 0.0 | 0.00 | 1.45 | 1.45 | 89 | 1014.9 |
| 20260507200053 | 10 | 0 | 0.0 | 1.6 | 0.00 | 1.45 | 1.45 | 89 | 1014.9 |
| 20260507195549 | 10 | 0 | 0.0 | 1.6 | 0.00 | 1.45 | 1.45 | 88 | 1014.9 |
| 20260507195052 | 10 | 0 | 0.0 | 3.2 | 0.00 | 1.45 | 1.45 | 88 | 1014.7 |
| 20260507194555 | 10 | 0 | 1.6 | 3.2 | 0.00 | 1.45 | 1.45 | 88 | 1014.9 |
| 20260507194048 | 10 | 0 | 0.0 | 4.8 | 0.00 | 1.45 | 1.45 | 88 | 1014.8 |
| 20260507193548 | 10 | 192 | 1.6 | 4.8 | 0.00 | 1.45 | 1.45 | 88 | 1014.7 |
| 20260507193159 | 10 | 219 | 1.6 | 6.4 | 0.00 | 1.45 | 1.45 | 88 | 1015.0 |
| 20260507192050 | 10 | 323 | 3.2 | 9.7 | 0.00 | 1.45 | 1.45 | 88 | 1014.4 |
| 20260507191601 | 10 | 192 | 3.2 | 9.7 | 0.00 | 1.45 | 1.45 | 88 | 1014.7 |
| 20260507191050 | 10 | 179 | 1.6 | 9.7 | 0.00 | 1.45 | 1.45 | 88 | 1014.4 |
| 20260507190550 | 10 | 204 | 3.2 | 9.7 | 0.00 | 1.45 | 1.45 | 88 | 1014.4 |
| 20260507190104 | 11 | 176 | 3.2 | 9.7 | 0.00 | 1.45 | 1.45 | 88 | 1014.3 |
| 20260507185550 | 11 | 197 | 3.2 | 9.7 | 0.00 | 1.45 | 1.45 | 88 | 1014.4 |
| 20260507185049 | 11 | 172 | 3.2 | 9.7 | 0.00 | 1.45 | 1.45 | 87 | 1014.3 |
| 20260507184556 | 11 | 195 | 3.2 | 8.0 | 0.00 | 1.45 | 1.45 | 86 | 1014.2 |
| 20260507184050 | 11 | 183 | 0.0 | 6.4 | 0.00 | 1.45 | 1.45 | 87 | 1014.1 |
| 20260507183549 | 11 | 267 | 1.6 | 6.4 | 0.00 | 1.45 | 1.45 | 87 | 1014.1 |
| 20260507183057 | 11 | 177 | 0.0 | 6.4 | 0.00 | 1.45 | 1.45 | 86 | 1014.3 |
| 20260507182553 | 11 | 180 | 1.6 | 6.4 | 0.00 | 1.45 | 1.45 | 85 | 1014.2 |
| 20260507182051 | 11 | 298 | 3.2 | 6.4 | 0.00 | 1.45 | 1.45 | 84 | 1014.2 |
| 20260507181553 | 11 | 2 | 1.6 | 6.4 | 0.00 | 1.45 | 1.45 | 85 | 1014.3 |
| 20260507181050 | 11 | 0 | 0.0 | 4.8 | 0.00 | 1.45 | 1.45 | 87 | 1014.2 |
| 20260507180551 | 11 | 0 | 0.0 | 6.4 | 0.00 | 1.45 | 1.45 | 87 | 1014.2 |
| 20260507180105 | 11 | 0 | 1.6 | 6.4 | 0.00 | 1.45 | 1.45 | 89 | 1014.3 |
| 20260507175550 | 11 | 49 | 0.0 | 3.2 | 0.00 | 1.45 | 1.45 | 89 | 1014.2 |
| 20260507175050 | 11 | 48 | 1.6 | 6.4 | 0.00 | 1.45 | 1.45 | 90 | 1014.5 |
| 20260507174556 | 11 | 311 | 1.6 | 6.4 | 0.00 | 1.45 | 1.45 | 90 | 1014.3 |
| 20260507174053 | 11 | 172 | 0.0 | 3.2 | 0.00 | 1.45 | 1.45 | 90 | 1014.3 |
| 20260507173553 | 11 | 0 | 0.0 | 4.8 | 0.00 | 1.45 | 1.45 | 91 | 1014.3 |
| 20260507173058 | 11 | 218 | 0.0 | 4.8 | 0.00 | 1.45 | 1.45 | 91 | 1014.2 |
| 20260507172854 | 11 | 0 | 0.0 | 1.6 | 0.00 | 1.45 | 1.45 | 92 | 1014.3 |
| 20260507171602 | 11 | 0 | 0.0 | 4.8 | 0.05 | 1.45 | 1.45 | 92 | 1014.3 |
| 20260507171049 | 11 | 213 | 0.0 | 4.8 | 0.05 | 1.45 | 1.45 | 92 | 1014.3 |
| 20260507170549 | 11 | 214 | 0.0 | 1.6 | 0.08 | 1.45 | 1.45 | 92 | 1014.5 |
| 20260507170054 | 11 | 0 | 0.0 | 11.3 | 0.08 | 1.45 | 1.45 | 91 | 1014.5 |
| 20260507165551 | 11 | 213 | 1.6 | 11.3 | 0.10 | 1.52 | 1.45 | 92 | 1014.5 |
| 20260507165049 | 10 | 206 | 3.2 | 11.3 | 0.15 | 1.52 | 1.45 | 91 | 1014.5 |
| 20260507164559 | 10 | 216 | 4.8 | 8.0 | 0.15 | 1.52 | 1.45 | 91 | 1014.4 |
| 20260507164050 | 10 | 217 | 1.6 | 6.4 | 0.18 | 1.52 | 1.45 | 91 | 1014.6 |
| 20260507163549 | 10 | 194 | 1.6 | 8.0 | 0.15 | 1.50 | 1.42 | 91 | 1014.6 |
| 20260507163105 | 10 | 206 | 1.6 | 8.0 | 0.15 | 1.50 | 1.42 | 91 | 1014.5 |
| 20260507162550 | 10 | 195 | 1.6 | 6.4 | 0.15 | 1.50 | 1.42 | 90 | 1014.5 |
| 20260507162051 | 11 | 190 | 3.2 | 6.4 | 0.15 | 1.50 | 1.40 | 90 | 1014.4 |
| 20260507161605 | 11 | 212 | 3.2 | 6.4 | 0.13 | 1.47 | 1.40 | 90 | 1014.4 |
| 20260507161052 | 11 | 313 | 1.6 | 6.4 | 0.13 | 1.47 | 1.40 | 89 | 1014.3 |
| 20260507160552 | 11 | 194 | 1.6 | 6.4 | 0.10 | 1.45 | 1.37 | 88 | 1014.3 |
| 20260507160101 | 11 | 176 | 0.0 | 4.8 | 0.08 | 1.42 | 1.35 | 88 | 1014.2 |
| 20260507155549 | 11 | 10 | 0.0 | 4.8 | 0.08 | 1.40 | 1.32 | 87 | 1014.3 |
| 20260507155053 | 11 | 10 | 1.6 | 4.8 | 0.05 | 1.37 | 1.30 | 87 | 1014.2 |
| 20260507154555 | 11 | 10 | 1.6 | 9.7 | 0.13 | 1.37 | 1.30 | 88 | 1014.2 |
| 20260507154053 | 11 | 240 | 1.6 | 12.9 | 0.10 | 1.35 | 1.27 | 88 | 1014.2 |
| 20260507153551 | 11 | 288 | 4.8 | 14.5 | 0.10 | 1.35 | 1.27 | 87 | 1013.8 |
| 20260507153058 | 11 | 261 | 4.8 | 24.1 | 0.10 | 1.35 | 1.27 | 87 | 1013.6 |
| 20260507152550 | 11 | 202 | 9.7 | 24.1 | 0.10 | 1.35 | 1.27 | 86 | 1013.5 |
| 20260507152450 | 11 | 196 | 6.4 | 14.5 | 0.10 | 1.32 | 1.24 | 87 | 1013.5 |
| 20260507151550 | 11 | 180 | 6.4 | 14.5 | 0.10 | 1.32 | 1.24 | 87 | 1013.6 |
| 20260507151051 | 11 | 199 | 3.2 | 8.0 | 0.13 | 1.32 | 1.24 | 87 | 1013.2 |
| 20260507150549 | 11 | 208 | 4.8 | 12.9 | 0.15 | 1.32 | 1.24 | 87 | 1013.5 |
| 20260507150052 | 11 | 173 | 1.6 | 12.9 | 0.15 | 1.32 | 1.24 | 87 | 1013.3 |
| 20260507145550 | 11 | 296 | 6.4 | 12.9 | 0.18 | 1.32 | 1.24 | 86 | 1013.3 |
| 20260507145052 | 11 | 301 | 1.6 | 8.0 | 0.18 | 1.30 | 1.22 | 85 | 1013.5 |
| 20260507144558 | 12 | 159 | 3.2 | 9.7 | 0.10 | 1.22 | 1.14 | 85 | 1013.5 |
| 20260507144048 | 12 | 284 | 3.2 | 9.7 | 0.13 | 1.22 | 1.14 | 87 | 1013.3 |
| 20260507143653 | 11 | 287 | 6.4 | 9.7 | 0.15 | 1.22 | 1.14 | 87 | 1013.3 |
| 20260507141601 | 11 | 326 | 4.8 | 12.9 | 0.20 | 1.22 | 1.12 | 90 | 1013.1 |
| 20260507141049 | 11 | 298 | 6.4 | 11.3 | 0.20 | 1.19 | 1.12 | 91 | 1013.2 |
| 20260507140549 | 11 | 294 | 6.4 | 11.3 | 0.20 | 1.17 | 1.09 | 91 | 1013.2 |
| 20260507140108 | 11 | 282 | 4.8 | 11.3 | 0.25 | 1.17 | 1.09 | 91 | 1013.7 |
| 20260507135548 | 11 | 313 | 8.0 | 11.3 | 0.25 | 1.14 | 1.07 | 90 | 1013.9 |
| 20260507135048 | 11 | 326 | 1.6 | 8.0 | 0.28 | 1.12 | 1.04 | 90 | 1014.1 |
| 20260507134552 | 11 | 308 | 3.2 | 11.3 | 0.28 | 1.12 | 1.02 | 90 | 1014.1 |
| 20260507134048 | 11 | 325 | 6.4 | 11.3 | 0.25 | 1.09 | 1.02 | 89 | 1013.8 |
| 20260507133548 | 11 | 296 | 6.4 | 9.7 | 0.25 | 1.07 | 0.99 | 89 | 1013.7 |
| 20260507133059 | 11 | 166 | 4.8 | 9.7 | 0.28 | 1.04 | 0.97 | 89 | 1013.6 |
| 20260507132551 | 11 | 298 | 1.6 | 12.9 | 0.28 | 1.02 | 0.94 | 90 | 1013.8 |
| 20260507132047 | 11 | 203 | 1.6 | 17.7 | 0.36 | 1.02 | 0.94 | 90 | 1013.6 |
| 20260507131609 | 11 | 249 | 4.8 | 17.7 | 0.46 | 0.99 | 0.91 | 89 | 1013.7 |
| 20260507131052 | 11 | 251 | 9.7 | 17.7 | 0.51 | 0.97 | 0.89 | 88 | 1013.6 |
| 20260507130549 | 11 | 313 | 9.7 | 19.3 | 0.58 | 0.94 | 0.86 | 88 | 1013.7 |
| 20260507130112 | 11 | 300 | 11.3 | 19.3 | 0.66 | 0.91 | 0.84 | 85 | 1013.8 |
| 20260507125551 | 11 | 247 | 8.0 | 14.5 | 0.71 | 0.89 | 0.81 | 84 | 1013.8 |
| 20260507125049 | 12 | 304 | 4.8 | 9.7 | 0.69 | 0.84 | 0.76 | 86 | 1014.0 |
| 20260507125022 | 12 | 112 | 1.6 | 11.3 | 0.74 | 0.84 | 0.74 | 86 | 1013.9 |
| 20260507123550 | 13 | 20 | 1.6 | 8.0 | 0.71 | 0.79 | 0.71 | 88 | 1014.1 |
| 20260507123057 | 13 | 19 | 1.6 | 4.8 | 0.69 | 0.76 | 0.69 | 87 | 1014.1 |
| 20260507122548 | 13 | 88 | 0.0 | 4.8 | 0.64 | 0.71 | 0.64 | 86 | 1014.1 |
| 20260507122052 | 13 | 60 | 1.6 | 4.8 | 0.56 | 0.64 | 0.56 | 85 | 1014.0 |
| 20260507121557 | 13 | 0 | 1.6 | 4.8 | 0.46 | 0.53 | 0.46 | 85 | 1014.2 |
| 20260507121053 | 13 | 35 | 0.0 | 6.4 | 0.36 | 0.43 | 0.36 | 85 | 1014.2 |
| 20260507120549 | 13 | 46 | 1.6 | 6.4 | 0.28 | 0.36 | 0.28 | 84 | 1014.1 |
| 20260507120056 | 13 | 79 | 1.6 | 6.4 | 0.13 | 0.20 | 0.13 | 82 | 1014.1 |
| 20260507115551 | 13 | 85 | 0.0 | 6.4 | 0.08 | 0.18 | 0.08 | 81 | 1014.1 |
| 20260507115049 | 13 | 26 | 0.0 | 20.9 | 0.08 | 0.15 | 0.08 | 77 | 1013.9 |
| 20260507114552 | 15 | 38 | 9.7 | 20.9 | 0.00 | 0.08 | 0.00 | 72 | 1014.2 |
| 20260507114048 | 15 | 318 | 3.2 | 14.5 | 0.00 | 0.08 | 0.00 | 75 | 1014.1 |
| 20260507113549 | 15 | 64 | 4.8 | 14.5 | 0.00 | 0.08 | 0.00 | 75 | 1014.0 |
| 20260507113051 | 15 | 133 | 6.4 | 12.9 | 0.00 | 0.08 | 0.00 | 74 | 1013.9 |
| 20260507112551 | 16 | 261 | 4.8 | 17.7 | 0.00 | 0.08 | 0.00 | 74 | 1014.1 |
| 20260507112050 | 15 | 72 | 6.4 | 17.7 | 0.00 | 0.08 | 0.00 | 74 | 1014.1 |
| 20260507111555 | 16 | 328 | 6.4 | 17.7 | 0.00 | 0.08 | 0.00 | 72 | 1014.2 |
| 20260507111049 | 16 | 294 | 6.4 | 16.1 | 0.00 | 0.08 | 0.00 | 69 | 1014.1 |
| 20260507110548 | 16 | 209 | 3.2 | 9.7 | 0.00 | 0.08 | 0.00 | 70 | 1014.2 |
| 20260507110052 | 16 | 180 | 3.2 | 19.3 | 0.00 | 0.08 | 0.00 | 69 | 1014.3 |
| 20260507105548 | 16 | 300 | 4.8 | 19.3 | 0.00 | 0.08 | 0.00 | 72 | 1014.3 |
| 20260507105048 | 16 | 290 | 6.4 | 12.9 | 0.00 | 0.08 | 0.00 | 73 | 1014.3 |
| 20260507104554 | 16 | 284 | 4.8 | 14.5 | 0.00 | 0.08 | 0.00 | 70 | 1014.3 |
| 20260507104047 | 16 | 327 | 4.8 | 16.1 | 0.00 | 0.08 | 0.00 | 73 | 1014.6 |
| 20260507103548 | 15 | 296 | 8.0 | 16.1 | 0.00 | 0.08 | 0.00 | 75 | 1014.7 |
| 20260507103053 | 15 | 308 | 8.0 | 16.1 | 0.00 | 0.08 | 0.00 | 74 | 1014.6 |
| 20260507102548 | 15 | 177 | 8.0 | 17.7 | 0.00 | 0.08 | 0.00 | 75 | 1014.5 |
| 20260507102049 | 15 | 292 | 9.7 | 17.7 | 0.00 | 0.08 | 0.00 | 75 | 1014.6 |
| 20260507101552 | 15 | 303 | 8.0 | 17.7 | 0.00 | 0.08 | 0.00 | 74 | 1014.6 |
| 20260507101048 | 15 | 318 | 4.8 | 14.5 | 0.00 | 0.08 | 0.00 | 75 | 1014.7 |
| 20260507100549 | 15 | 284 | 4.8 | 16.1 | 0.00 | 0.08 | 0.00 | 75 | 1014.7 |
| 20260507100057 | 15 | 309 | 6.4 | 19.3 | 0.00 | 0.08 | 0.00 | 76 | 1014.9 |
| 20260507095549 | 15 | 311 | 8.0 | 19.3 | 0.00 | 0.08 | 0.00 | 77 | 1014.7 |
| 20260507095049 | 15 | 305 | 9.7 | 17.7 | 0.00 | 0.08 | 0.00 | 76 | 1014.9 |
| 20260507094554 | 15 | 318 | 8.0 | 19.3 | 0.00 | 0.08 | 0.00 | 75 | 1014.9 |
| 20260507094049 | 15 | 327 | 6.4 | 20.9 | 0.00 | 0.08 | 0.00 | 75 | 1014.8 |
| 20260507093549 | 15 | 292 | 11.3 | 20.9 | 0.00 | 0.08 | 0.00 | 75 | 1014.9 |
| 20260507093241 | 15 | 308 | 6.4 | 14.5 | 0.00 | 0.08 | 0.00 | 76 | 1014.9 |
| 20260507091554 | 14 | 310 | 11.3 | 17.7 | 0.00 | 0.08 | 0.00 | 77 | 1014.6 |